Probability
3 6 8 5 1 1 2 3 4 4 4 4 3 3 3 3 4 4 3 2 1 2 4 5 3 2 1 1 1 2 2 1 0 0 0 0 1 1 1 0 0 0 0
4 7 7 5 2 1 1 2 4 5 5 4 3 3 3 3 3 3 2 1 1 2 4 4 3 3 2 1 1 2 2 1 0 0 0 0 0 0 0 0 0 0 0
4 6 6 5 3 1 1 1 3 5 4 3 3 4 4 3 2 2 2 2 2 3 3 3 3 3 3 2 1 2 2 1 0 0 0 0 0 0 0 0 0 0 0
2 3 5 5 4 2 0 1 3 4 4 4 4 5 5 4 3 3 4 4 3 3 3 3 3 3 3 2 1 2 1 0 0 0 0 0 0 0 0 0 0 0 0
1 2 4 4 4 2 1 1 3 5 6 6 6 6 6 4 2 2 4 4 2 1 2 3 3 3 2 2 2 2 1 0 0 0 0 0 0 0 0 0 0 0 0
0 1 3 4 4 3 2 1 2 4 6 6 6 6 5 4 2 2 2 2 1 0 1 1 2 1 1 1 1 1 1 0 0 0 0 0 0 0 0 0 0 0 0
0 1 2 3 4 3 3 1 1 3 5 6 6 6 5 5 4 3 1 1 0 0 0 0 0 0 0 0 0 0 0 0 0 0 0 0 0 0 0 0 0 0 0
1 2 3 4 4 3 4 3 3 3 4 7 7 6 5 5 5 4 1 0 0 0 0 0 0 0 1 0 0 0 0 0 0 0 0 0 0 0 0 0 0 0 0
1 3 5 5 4 4 4 4 4 3 5 7 7 7 6 5 5 4 2 1 1 1 0 0 0 0 0 0 0 0 0 0 0 0 0 1 1 1 0 0 0 0 0
2 3 5 5 3 3 4 4 3 4 6 8 7 7 6 5 5 5 3 2 1 1 0 0 0 0 0 1 1 1 0 0 0 0 0 1 1 1 0 0 0 0 0
3 4 4 3 2 2 3 3 3 5 7 7 7 7 6 4 4 4 4 3 2 1 1 1 0 0 0 1 1 1 1 2 1 0 0 0 0 0 0 0 0 0 0
2 3 3 2 2 2 3 4 5 6 7 7 7 6 5 4 4 4 4 4 3 2 2 1 1 2 2 3 2 3 4 4 2 1 0 0 0 0 0 0 0 0 0
1 1 2 2 3 4 5 7 9 8 7 6 6 6 6 6 5 5 5 5 3 2 2 2 3 4 5 5 5 5 6 5 3 2 0 0 0 0 0 0 0 0 0
2 1 2 3 5 6 7 10 11 9 7 7 7 7 6 6 5 4 4 4 3 2 2 3 5 7 8 8 7 6 5 4 3 1 0 0 0 0 0 0 0 0 0
3 2 2 4 7 8 9 10 10 8 7 7 7 6 6 5 4 3 3 3 3 3 3 5 7 9 9 8 6 5 4 3 3 1 1 1 1 1 1 1 1 1 1
3 3 4 6 8 8 8 7 6 5 5 5 5 6 5 4 3 3 3 3 3 2 2 4 7 8 7 5 4 3 3 3 3 2 2 2 3 3 3 3 3 4 4
4 5 7 8 8 8 6 5 3 2 2 3 4 5 5 4 3 3 3 3 3 2 1 2 4 5 4 2 1 2 2 3 3 3 2 2 3 5 5 6 6 6 6
5 6 8 8 8 7 5 4 3 2 2 3 4 5 6 4 3 3 3 3 3 2 1 1 2 3 1 0 1 2 2 3 3 3 3 3 4 5 6 6 6 6 5
9 9 8 7 7 6 5 4 4 4 3 3 3 4 6 5 4 3 3 3 3 2 1 1 1 2 1 0 1 2 2 2 3 3 3 4 4 5 5 6 6 6 6
12 11 9 8 8 7 6 6 6 6 4 3 3 4 5 5 4 3 2 2 1 2 3 2 2 2 2 1 0 1 1 1 3 3 3 3 3 4 3 4 6 6 6
11 10 10 10 10 9 8 7 7 7 5 3 3 3 3 4 3 1 1 1 1 3 4 4 3 3 3 1 0 0 0 1 2 3 2 2 3 3 3 3 5 6 6
9 8 9 11 12 10 8 7 6 6 4 3 3 3 3 3 3 2 1 1 3 4 5 5 4 3 3 2 1 1 1 1 2 2 3 3 4 4 4 3 5 7 7
9 8 8 11 13 13 10 6 5 5 4 4 4 6 6 5 6 6 5 4 4 4 4 4 4 3 3 3 4 4 4 4 3 2 2 3 4 5 4 4 6 8 9
8 7 8 11 15 16 13 9 7 7 5 5 6 8 9 9 9 9 8 7 6 4 4 5 6 5 5 6 7 8 9 7 6 5 4 4 4 5 5 5 6 8 9
7 7 8 11 15 17 16 14 11 8 6 6 7 9 10 11 10 9 8 9 7 6 5 6 7 7 8 9 10 11 11 10 9 8 7 6 5 4 5 6 7 8 9
7 8 9 12 16 17 16 15 13 9 7 7 8 9 10 11 9 8 8 9 10 8 7 7 7 8 10 11 11 11 11 11 11 11 10 7 5 5 5 7 8 8 8
Wind_Speed
4 7 8 6 8 8 9 9 10 10 10 10 11 10 10 10 10 10 10 10 10 9 10 11 11 11 11 11 10 10 10 10 10 9 9 8 8 8 8 8 8 8 11
6 8 9 7 8 8 9 9 10 10 10 10 10 10 10 9 9 9 9 9 9 8 10 12 11 10 10 10 10 10 9 9 9 9 9 9 8 7 8 7 4 6 10
6 8 9 7 8 9 9 9 10 10 10 10 10 9 9 9 9 8 8 9 9 8 9 10 10 9 9 9 9 9 9 9 8 8 8 6 7 8 8 7 7 8 8
6 7 8 8 8 9 9 9 9 9 10 9 9 9 8 8 8 8 8 8 8 8 8 8 9 9 9 8 8 8 8 8 8 8 6 5 5 8 7 8 8 8 8
7 7 10 8 8 9 9 9 9 9 9 9 8 8 8 8 7 7 7 7 7 7 7 7 8 8 8 7 7 7 7 8 7 7 4 4 4 7 7 8 8 8 8
8 7 10 7 8 9 9 9 9 8 8 8 8 8 7 7 7 7 6 6 6 6 6 7 7 7 7 6 7 7 7 7 8 5 4 4 5 8 7 7 8 8 8
8 7 10 9 9 9 10 9 9 8 8 8 7 7 6 6 6 6 5 5 5 6 6 6 6 6 6 6 6 7 7 7 5 3 4 4 5 8 8 8 8 8 8
7 7 10 11 10 9 9 9 8 8 7 7 7 6 6 6 6 5 5 5 5 5 5 5 5 5 6 6 6 6 6 7 5 4 3 4 6 7 7 7 7 7 8
7 7 7 9 10 10 9 9 8 7 7 6 6 6 6 6 5 5 4 4 4 4 4 5 5 5 6 6 6 6 5 5 4 3 4 4 7 7 7 7 7 7 7
6 6 6 7 7 7 9 10 8 7 6 6 6 5 5 6 6 6 5 5 4 4 4 5 4 4 5 6 6 6 7 7 4 3 3 6 8 7 7 7 7 7 7
6 6 6 6 6 6 6 9 9 9 7 6 6 6 4 3 4 4 5 4 4 4 4 4 4 4 5 7 7 7 8 4 3 1 2 8 8 8 7 7 7 7 8
7 6 5 5 5 6 5 6 4 4 5 3 3 3 2 2 2 2 5 5 4 4 5 4 4 6 7 5 8 9 4 3 2 2 4 9 8 8 7 7 7 7 8
7 6 6 5 4 4 4 4 3 2 3 3 4 2 2 1 2 1 2 4 4 5 4 5 5 3 2 1 1 2 2 2 1 1 5 9 7 7 7 7 7 8 8
6 6 5 5 4 3 3 3 3 2 2 2 3 2 2 1 1 1 1 1 1 1 1 1 1 1 1 2 2 2 2 2 1 1 4 8 7 7 7 7 8 8 9
7 6 6 5 5 4 3 2 3 2 2 3 2 2 1 1 1 1 1 1 0 1 2 1 1 1 1 2 1 2 2 2 1 1 3 8 7 7 7 7 8 8 8
6 6 6 6 5 4 3 2 2 2 2 1 2 2 1 1 1 0 1 0 0 0 1 0 1 1 1 1 1 1 1 1 1 1 2 5 8 7 6 6 7 7 8
7 6 6 6 6 5 3 3 2 2 2 1 1 2 1 0 1 0 0 0 1 1 1 1 1 1 1 1 1 1 1 1 1 2 2 2 4 8 7 6 6 7 8
7 7 6 5 6 5 3 2 2 2 2 1 1 1 1 0 0 0 0 0 1 0 0 1 1 1 1 1 1 0 1 1 2 2 2 2 2 2 6 7 6 7 7
7 7 7 6 5 5 4 3 3 2 1 1 1 1 1 1 0 0 0 1 1 0 0 1 1 0 0 0 0 1 1 1 1 2 2 2 2 2 2 6 6 6 6
7 7 7 7 6 5 4 4 3 2 2 1 1 1 1 1 1 1 1 0 1 0 0 0 0 0 1 0 1 0 1 1 1 1 2 1 1 2 1 2 4 5 7
8 7 7 6 6 5 4 4 3 3 2 2 1 1 1 1 1 1 1 1 1 1 1 1 1 2 1 0 1 1 1 2 1 1 1 1 1 1 2 2 2 1 4
8 8 8 7 6 6 4 3 2 2 2 2 1 1 1 1 2 2 1 1 1 0 1 1 1 1 1 1 2 2 1 2 2 1 1 2 1 1 2 2 2 2 2
9 9 7 7 7 5 5 4 3 3 2 2 2 2 2 2 1 0 1 1 1 1 1 1 1 2 1 1 1 2 2 1 0 2 2 1 1 1 1 1 2 2 2
9 8 8 7 7 6 6 5 5 3 3 2 2 2 2 2 2 2 2 1 2 1 1 2 1 1 2 2 1 1 2 2 2 1 2 2 2 1 1 1 1 1 2
8 8 8 8 7 6 5 5 4 4 3 3 3 3 3 3 2 2 2 2 2 2 1 1 0 2 2 2 1 1 1 1 3 3 1 1 2 1 1 1 1 1 1
8 8 8 8 7 7 6 6 5 4 3 3 3 3 3 3 2 3 2 2 2 1 1 2 2 2 2 2 2 1 2 2 2 2 2 2 2 1 1 1 1 0 0
Wind_Direction
106 101 104 110 119 118 112 110 113 119 122 128 130 128 128 130 135 136 135 137 138 140 144 146 145 145 144 144 145 146 145 146 145 144 144 148 151 149 150 153 164 146 131
116 111 114 115 123 121 119 118 116 119 122 123 128 127 128 129 130 131 135 137 135 136 135 140 144 144 144 143 145 147 148 149 148 149 154 158 158 157 156 159 157 122 140
119 118 124 117 123 126 125 122 119 119 119 118 121 124 124 125 127 129 135 135 131 130 134 139 142 143 144 146 149 149 149 151 150 160 176 166 151 157 160 155 142 143 150
122 123 117 121 127 125 121 120 119 118 116 117 119 122 123 125 126 129 132 131 131 134 137 142 146 145 145 148 151 149 147 146 154 181 184 157 149 144 162 157 153 155 158
120 120 114 131 129 125 121 119 115 114 116 119 120 119 122 123 128 128 126 129 133 137 139 142 146 146 145 146 149 149 149 151 171 200 156 144 139 140 155 159 163 163 163
120 121 114 130 132 129 124 121 120 119 118 119 119 116 117 119 119 123 125 130 137 140 142 144 142 144 148 154 154 152 159 171 196 174 147 154 147 150 164 170 173 170 171
116 111 110 117 127 129 126 124 125 122 118 118 119 118 117 117 118 122 124 133 139 141 145 145 145 147 149 149 154 160 174 199 206 164 162 160 142 154 172 177 176 174 174
110 108 109 120 123 126 126 125 125 121 119 119 117 118 117 116 117 122 133 139 142 142 147 148 154 157 151 153 161 166 182 219 193 168 168 148 136 163 174 174 172 173 176
113 111 112 123 130 133 130 127 123 119 117 115 113 116 121 122 122 123 128 131 135 139 141 144 155 164 165 164 171 177 192 227 234 171 168 138 139 162 174 172 174 172 170
114 112 116 119 121 132 132 130 126 123 120 115 116 121 129 138 140 138 151 137 139 140 139 142 148 155 168 171 174 183 199 220 215 168 155 130 147 167 178 177 173 171 172
123 122 122 122 123 127 124 129 139 141 137 143 139 140 164 153 135 148 105 121 141 145 147 147 154 162 175 175 180 189 206 214 167 162 135 129 157 175 184 184 180 180 180
138 135 127 126 130 132 127 130 137 134 126 126 100 118 126 104 94 88 118 136 147 155 165 161 176 194 211 182 172 193 197 184 180 173 135 145 170 185 190 189 189 191 186
140 137 138 133 130 127 126 130 126 127 128 134 120 118 104 114 115 110 118 144 160 175 176 163 193 196 176 136 191 171 157 199 177 164 134 153 176 190 193 195 198 195 193
141 144 141 136 131 128 124 132 140 133 131 127 124 138 124 106 83 72 63 86 153 150 145 179 168 143 141 155 169 160 174 206 179 144 134 156 180 193 197 198 198 199 199
152 151 144 141 139 145 146 167 135 137 139 130 118 117 103 115 99 78 69 47 49 104 152 160 146 138 148 137 151 153 173 172 185 201 141 160 184 197 201 203 201 199 197
154 154 146 152 150 154 157 156 141 145 132 120 126 110 110 86 74 76 96 56 45 53 60 108 120 138 143 117 155 132 199 186 153 207 212 168 177 189 198 202 203 200 195
157 155 155 158 152 155 162 161 158 162 144 137 120 130 173 171 115 251 77 184 48 54 88 118 112 146 157 151 145 147 198 227 212 201 224 215 182 180 189 194 198 195 196
158 155 162 159 151 154 159 168 161 146 140 144 152 148 156 161 181 242 16 68 14 349 129 130 184 161 142 176 135 179 213 209 210 206 215 203 208 184 175 177 190 195 203
162 160 161 161 160 159 160 165 162 151 155 160 160 155 138 195 220 224 6 26 277 286 292 248 106 264 206 71 173 183 238 226 209 213 216 211 195 205 175 152 173 191 199
158 160 163 165 163 165 165 164 163 158 166 163 168 142 171 177 186 240 177 177 270 252 260 15 115 149 274 252 291 355 260 248 243 220 230 206 183 197 201 174 183 182 192
165 166 166 166 164 171 171 179 172 168 170 167 175 150 188 190 187 241 280 151 251 195 230 213 212 181 210 195 234 210 205 205 201 209 213 216 175 189 194 194 229 224 181
171 172 172 174 173 180 165 168 169 170 182 176 175 143 207 201 214 197 208 220 204 180 187 205 207 246 226 212 279 266 225 185 187 172 183 192 201 200 201 196 194 213 245
175 178 176 176 176 178 172 171 163 168 189 181 183 177 185 191 195 229 180 242 220 227 162 232 228 222 243 233 273 293 289 309 229 165 177 167 180 207 219 188 201 201 222
177 177 176 175 176 174 180 183 189 194 197 188 200 175 174 178 194 197 205 209 243 246 170 231 186 250 246 239 219 268 302 329 281 208 192 170 178 204 244 247 208 193 222
174 174 171 170 174 178 187 179 198 206 203 194 194 172 196 178 193 206 207 213 222 238 216 248 238 250 240 256 258 249 253 239 259 269 250 233 221 207 207 220 222 220 245
170 171 167 169 175 180 189 190 199 200 208 209 208 194 203 193 197 199 200 207 216 217 199 214 232 221 251 266 270 268 262 269 270 272 264 254 251 208 192 209 240 217 232